This is the latest recevied weather packets stored in our database for station/object MM1PTT-13. If no packets are shown the sender has not sent any weather packets the latest 1 day(s).
| Time | Temp. | Humidity | Pressure | Rain* | Wind** | Luminosity | Snow |
|---|---|---|---|---|---|---|---|
| 1778009743 | 7.22° C | 66% | 988.1 hPa | 0 mm | 2.24 m/s, 98° | 8 W/m² | - |
| 1778009443 | 7.22° C | 66% | 988.1 hPa | 0 mm | 2.24 m/s, 53° | 8 W/m² | - |
| 1778009142 | 7.22° C | 67% | 988.1 hPa | 0 mm | 0.89 m/s, 131° | 8 W/m² | - |
| 1778008843 | 7.22° C | 66% | 988.1 hPa | 0 mm | 1.34 m/s, 17° | 11 W/m² | - |
| 1778008544 | 7.78° C | 66% | 988.1 hPa | 0 mm | 2.24 m/s, 86° | 15 W/m² | - |
| 1778008243 | 7.78° C | 65% | 988.1 hPa | 0 mm | 2.24 m/s, 21° | 16 W/m² | - |
| 1778007943 | 7.78° C | 67% | 987.8 hPa | 0 mm | 3.13 m/s, 69° | 17 W/m² | - |
| 1778007643 | 7.78° C | 66% | 988.1 hPa | 0 mm | 3.13 m/s, 45° | 25 W/m² | - |
| 1778007343 | 7.78° C | 68% | 988.1 hPa | 0 mm | 1.34 m/s, 69° | 35 W/m² | - |
| 1778007043 | 7.78° C | 67% | 987.8 hPa | 0 mm | 3.58 m/s, 54° | 42 W/m² | - |
| 1778006742 | 7.78° C | 67% | 987.8 hPa | 0 mm | 1.79 m/s, 113° | 47 W/m² | - |
| 1778006443 | 7.78° C | 67% | 987.5 hPa | 0 mm | 1.34 m/s, 149° | 42 W/m² | - |
| 1778006143 | 8.33° C | 68% | 987.8 hPa | 0 mm | 1.34 m/s, 40° | 53 W/m² | - |
| 1778005843 | 8.33° C | 67% | 987.8 hPa | 0 mm | 2.24 m/s, 66° | 64 W/m² | - |
| 1778005546 | 8.33° C | 67% | 987.8 hPa | 0 mm | 3.13 m/s, 88° | 70 W/m² | - |
| 1778005243 | 8.33° C | 68% | 987.5 hPa | 0 mm | 2.24 m/s, 34° | 84 W/m² | - |
| 1778004943 | 8.33° C | 66% | 987.8 hPa | 0 mm | 2.68 m/s, 65° | 82 W/m² | - |
| 1778004644 | 8.33° C | 66% | 987.8 hPa | 0 mm | 2.24 m/s, 38° | 70 W/m² | - |
| 1778004343 | 8.33° C | 65% | 987.8 hPa | 0 mm | 4.02 m/s, 47° | 86 W/m² | - |
| 1778004043 | 8.33° C | 64% | 986.8 hPa | 0 mm | 3.58 m/s, 19° | 110 W/m² | - |
| 1778003743 | 8.89° C | 65% | 987.8 hPa | 0 mm | 2.68 m/s, 43° | 120 W/m² | - |
| 1778003443 | 9.44° C | 64% | 987.5 hPa | 0 mm | 3.13 m/s, 13° | 155 W/m² | - |
| 1778003144 | 8.89° C | 64% | 987.8 hPa | 0 mm | 1.34 m/s, 47° | 134 W/m² | - |
| 1778002844 | 8.89° C | 65% | 987.8 hPa | 0 mm | 1.79 m/s, 87° | 130 W/m² | - |
| 1778002543 | 8.89° C | 65% | 987.5 hPa | 0 mm | 0.89 m/s, 64° | 142 W/m² | - |
* Rain latest hour (hover to see other rain measurements)
** Current wind speed in m/s (hover to see current wind gust speed)